Regional Weather Roundup
Issued by NWS

Home | Current Version | Previous Version | Text Only | Print | Product List | Glossary On
Versions: 1 2 3 4 5 6 7 8 9 10 11 12 13 14 15 16 17 18 19 20 21 22 23 24 25 26 27 28 29 30 31 32 33 34 35 36 37 38 39 40 41 42 43 44 45 46 47 48 49 50
258
ASUS43 KTOP 200308
RWRKS

WEATHER ROUNDUP FOR KANSAS
NATIONAL WEATHER SERVICE GOODLAND KS
900 PM CST SUN FEB 19 2017

NOTE:  "FAIR" INDICATES FEW OR NO CLOUDS BELOW 12,000 FEET WITH NO
SIGNIFICANT WEATHER AND/OR OBSTRUCTIONS TO VISIBILITY.

KSZ001>006-013>018-027>032-041>047-200400-
NORTHWEST KANSAS

CITY           SKY/WX    TMP DP  RH WIND       PRES   REMARKS
GOODLAND       PTCLDY    55  34  45 S18       29.66R
HAYS           PTCLDY    57  53  86 S17       29.77S
HILL CITY      MOCLDY    57  53  86 S10       29.74R
RUSSELL        CLOUDY    57  53  86 SE20      29.77S
$$

KSZ061>065-074>080-084>089-200400-
SOUTHWEST KANSAS

CITY           SKY/WX    TMP DP  RH WIND       PRES   REMARKS
DODGE CITY     PTCLDY    55  49  80 S7        29.79R
ELKHART          N/A     52  33  48 S12         N/A
GARDEN CITY    PTCLDY    57  34  41 S10       29.75S
GREAT BEND     MOCLDY    58  54  86 SE18      29.79F
LIBERAL        CLOUDY    57  36  44 S10       29.78S
PRATT          CLOUDY    57  54  90 SE10      29.81F
$$

KSZ066>073-081>083-090>101-200400-
SOUTHEAST KANSAS

CITY           SKY/WX    TMP DP  RH WIND       PRES   REMARKS
CHANUTE        MOCLDY    61  55  81 SE5       29.90R
COFFEYVILLE    MOCLDY    63  57  81 S5        29.90S
HUTCHINSON     CLOUDY    60  55  83 SE9       29.82S
MEDICINE LODGE   N/A     59  57  93 SE9       29.81R
NEWTON         CLOUDY    58  53  84 SE9       29.84F
PARSONS        PTCLDY    64  56  75 S5        29.90S
WICHITA INTL   CLOUDY    63  58  83 S14       29.83F
WICHITA JABRA  CLOUDY    63  58  83 S12       29.84F
WICHITA MCCONL CLOUDY    63  57  81 S14       29.83F
WINFIELD       CLOUDY    64  58  80 SE8       29.84F
$$

KSZ007>012-019>026-033>040-048>060-102>105-200400-
NORTHEAST KANSAS

CITY           SKY/WX    TMP DP  RH WIND       PRES   REMARKS
CONCORDIA      PTCLDY    58  54  86 S20       29.81R
EMPORIA        CLEAR     57  54  89 SE10      29.87S
LAWRENCE         N/A     55  51  86 SE5       29.91R
MANHATTAN      CLOUDY    53  50  89 CALM      29.86S
MARYSVILLE     CLOUDY    57  54  88 S13G20    29.85S
OLATHE IND     PTCLDY    58  51  78 S5        29.92R
OLATHE EXE     CLOUDY    60  52  74 S6        29.92R
SALINA         PTCLDY    58  53  84 SE6       29.81F
TOPEKA BILLARD PTCLDY    62  54  74 S9        29.89R
TOPEKA FORBES  PTCLDY    62  54  74 S9        29.89R
$$




USA.gov is the U.S. government's official web portal to all federal, state and local government web resources and services.